Time,TemperatureF,DewpointF,PressureIn,WindDirection,WindDirectionDegrees,WindSpeedMPH,WindSpeedGustMPH,Humidity,HourlyPrecipIn,Conditions,Clouds,dailyrainin,SolarRadiationWatts/m^2,SoftwareType,DateUTC
2013-04-28 00:01:00,62.8,41.1,29.83,ESE,112,1.4,1.4,45,0.00,CLR,OVC,0.00,0.0,WeatherDisplay:10.37,2013-04-28 07:01:00,
2013-04-28 00:06:00,62.6,40.9,29.83,ENE,68,1.2,1.2,45,0.00,CLR,OVC,0.00,0.0,WeatherDisplay:10.37,2013-04-28 07:06:00,
2013-04-28 00:11:00,62.4,41.4,29.83,South,180,1.3,1.3,46,0.00,CLR,OVC,0.00,0.0,WeatherDisplay:10.37,2013-04-28 07:11:00,
2013-04-28 00:16:00,62.2,41.2,29.83,ESE,112,2.3,2.3,46,0.00,CLR,OVC,0.00,0.0,WeatherDisplay:10.37,2013-04-28 07:16:00,
2013-04-28 00:21:00,62.1,41.6,29.83,South,180,0.0,0.3,47,0.00,CLR,OVC,0.00,0.0,WeatherDisplay:10.37,2013-04-28 07:21:00,
2013-04-28 00:26:00,61.9,41.4,29.85,South,180,2.3,2.3,47,0.00,CLR,OVC,0.00,0.0,WeatherDisplay:10.37,2013-04-28 07:26:00,
2013-04-28 00:31:00,61.7,41.8,29.85,ENE,68,1.2,1.2,48,0.00,CLR,OVC,0.00,0.0,WeatherDisplay:10.37,2013-04-28 07:31:00,
2013-04-28 00:36:00,61.7,41.8,29.85,ENE,68,0.0,0.1,48,0.00,CLR,OVC,0.00,0.0,WeatherDisplay:10.37,2013-04-28 07:36:00,
2013-04-28 00:41:00,61.7,41.8,29.85,SW,225,0.0,0.0,48,0.00,CLR,OVC,0.00,0.0,WeatherDisplay:10.37,2013-04-28 07:41:00,
2013-04-28 00:46:00,61.7,42.3,29.83,ESE,112,0.0,0.0,49,0.00,CLR,OVC,0.00,0.0,WeatherDisplay:10.37,2013-04-28 07:46:00,
2013-04-28 00:51:00,61.7,42.3,29.83,NW,315,0.0,0.0,49,0.00,CLR,OVC,0.00,0.0,WeatherDisplay:10.37,2013-04-28 07:51:00,
2013-04-28 00:56:00,61.3,42.0,29.83,South,180,2.6,2.6,49,0.00,CLR,OVC,0.00,0.0,WeatherDisplay:10.37,2013-04-28 07:56:00,
2013-04-28 01:01:00,61.0,41.7,29.83,SE,135,1.2,1.2,49,0.00,CLR,OVC,0.00,0.0,WeatherDisplay:10.37,2013-04-28 08:01:00,
2013-04-28 01:06:00,61.0,42.2,29.84,SE,135,0.0,0.8,50,0.00,CLR,OVC,0.00,0.0,WeatherDisplay:10.37,2013-04-28 08:06:00,
2013-04-28 01:11:00,60.8,42.0,29.84,South,180,0.0,0.3,50,0.00,CLR,OVC,0.00,0.0,WeatherDisplay:10.37,2013-04-28 08:11:00,
2013-04-28 01:16:00,60.6,42.4,29.84,SSW,202,2.3,2.3,51,0.00,CLR,OVC,0.00,0.0,WeatherDisplay:10.37,2013-04-28 08:16:00,
2013-04-28 01:21:00,60.6,42.9,29.84,South,180,1.7,1.7,52,0.00,CLR,OVC,0.00,0.0,WeatherDisplay:10.37,2013-04-28 08:21:00,
2013-04-28 01:26:00,60.4,42.7,29.84,South,180,3.5,3.5,52,0.00,CLR,OVC,0.00,0.0,WeatherDisplay:10.37,2013-04-28 08:26:00,
2013-04-28 01:31:00,60.4,43.2,29.84,WSW,248,2.3,2.3,53,0.00,CLR,OVC,0.00,0.0,WeatherDisplay:10.37,2013-04-28 08:31:00,
2013-04-28 01:36:00,60.3,43.1,29.84,SSW,202,2.3,2.3,53,0.00,CLR,OVC,0.00,0.0,WeatherDisplay:10.37,2013-04-28 08:36:00,
2013-04-28 01:41:00,60.3,43.1,29.84,SSE,158,3.5,3.5,53,0.00,CLR,OVC,0.00,0.0,WeatherDisplay:10.37,2013-04-28 08:41:00,
2013-04-28 01:46:00,60.3,43.5,29.83,SE,135,0.0,1.2,54,0.00,CLR,OVC,0.00,0.0,WeatherDisplay:10.37,2013-04-28 08:46:00,
2013-04-28 01:51:00,60.1,43.4,29.83,SW,225,1.2,1.2,54,0.00,CLR,OVC,0.00,0.0,WeatherDisplay:10.37,2013-04-28 08:51:00,
2013-04-28 01:56:00,60.1,43.4,29.83,ESE,112,3.5,3.5,54,0.00,CLR,OVC,0.00,0.0,WeatherDisplay:10.37,2013-04-28 08:56:00,
2013-04-28 02:01:00,59.9,43.2,29.83,SSE,158,2.4,2.4,54,0.00,CLR,OVC,0.00,0.0,WeatherDisplay:10.37,2013-04-28 09:01:00,
2013-04-28 02:06:00,59.7,43.5,29.83,SW,225,1.2,2.0,55,0.00,CLR,OVC,0.00,0.0,WeatherDisplay:10.37,2013-04-28 09:06:00,
2013-04-28 02:11:00,59.7,43.5,29.83,SW,225,3.5,3.5,55,0.00,CLR,OVC,0.00,0.0,WeatherDisplay:10.37,2013-04-28 09:11:00,
2013-04-28 02:16:00,59.7,43.5,29.83,WNW,292,2.8,2.8,55,0.00,CLR,OVC,0.00,0.0,WeatherDisplay:10.37,2013-04-28 09:16:00,
2013-04-28 02:21:00,59.5,43.3,29.83,South,180,1.2,1.6,55,0.00,CLR,OVC,0.00,0.0,WeatherDisplay:10.37,2013-04-28 09:21:00,
2013-04-28 02:26:00,59.5,43.3,29.82,SSE,158,2.3,2.3,55,0.00,CLR,OVC,0.00,0.0,WeatherDisplay:10.37,2013-04-28 09:26:00,
2013-04-28 02:31:00,59.2,43.5,29.82,South,180,2.3,2.3,56,0.00,CLR,OVC,0.00,0.0,WeatherDisplay:10.37,2013-04-28 09:31:00,
2013-04-28 02:36:00,59.2,43.5,29.82,South,180,2.3,2.3,56,0.00,CLR,OVC,0.00,0.0,WeatherDisplay:10.37,2013-04-28 09:36:00,
2013-04-28 02:41:00,59.2,43.5,29.82,South,180,1.2,1.2,56,0.00,CLR,OVC,0.00,0.0,WeatherDisplay:10.37,2013-04-28 09:41:00,
2013-04-28 02:46:00,59.2,43.5,29.82,SE,135,0.0,0.7,56,0.00,CLR,OVC,0.00,0.0,WeatherDisplay:10.37,2013-04-28 09:46:00,
2013-04-28 02:51:00,59.2,43.5,29.82,SE,135,0.0,0.1,56,0.00,CLR,OVC,0.00,0.0,WeatherDisplay:10.37,2013-04-28 09:51:00,
2013-04-28 02:56:00,59.2,43.5,29.82,South,180,0.0,0.1,56,0.00,CLR,OVC,0.00,0.0,WeatherDisplay:10.37,2013-04-28 09:56:00,
2013-04-28 03:01:00,59.2,43.5,29.82,ENE,68,0.0,0.1,56,0.00,CLR,OVC,0.00,0.0,WeatherDisplay:10.37,2013-04-28 10:01:00,
2013-04-28 03:06:00,59.0,43.3,29.82,ESE,112,1.2,1.2,56,0.00,CLR,OVC,0.00,0.0,WeatherDisplay:10.37,2013-04-28 10:06:00,
2013-04-28 03:11:00,59.0,43.3,29.82,South,180,1.2,1.2,56,0.00,CLR,OVC,0.00,0.0,WeatherDisplay:10.37,2013-04-28 10:11:00,
2013-04-28 03:16:00,58.8,43.6,29.82,SW,225,2.3,2.3,57,0.00,CLR,OVC,0.00,0.0,WeatherDisplay:10.37,2013-04-28 10:16:00,
2013-04-28 03:21:00,58.8,43.6,29.82,South,180,2.4,2.4,57,0.00,CLR,OVC,0.00,0.0,WeatherDisplay:10.37,2013-04-28 10:21:00,
2013-04-28 03:26:00,58.6,43.4,29.83,SW,225,2.3,2.3,57,0.00,CLR,OVC,0.00,0.0,WeatherDisplay:10.37,2013-04-28 10:26:00,
2013-04-28 03:31:00,58.6,43.4,29.83,WSW,248,3.5,3.5,57,0.00,CLR,OVC,0.00,0.0,WeatherDisplay:10.37,2013-04-28 10:31:00,
2013-04-28 03:36:00,58.5,43.3,29.83,SW,225,2.3,2.3,57,0.00,CLR,OVC,0.00,0.0,WeatherDisplay:10.37,2013-04-28 10:36:00,
2013-04-28 03:41:00,58.3,43.1,29.83,SSE,158,1.2,1.2,57,0.00,CLR,OVC,0.00,0.0,WeatherDisplay:10.37,2013-04-28 10:41:00,
2013-04-28 03:46:00,58.3,43.1,29.83,SW,225,2.3,2.3,57,0.00,CLR,OVC,0.00,0.0,WeatherDisplay:10.37,2013-04-28 10:46:00,
2013-04-28 03:51:00,58.1,42.9,29.83,South,180,1.6,1.6,57,0.00,CLR,OVC,0.00,0.0,WeatherDisplay:10.37,2013-04-28 10:51:00,
2013-04-28 03:56:00,58.1,42.9,29.83,South,180,2.3,2.3,57,0.00,CLR,OVC,0.00,0.0,WeatherDisplay:10.37,2013-04-28 10:56:00,
2013-04-28 04:01:00,57.9,42.8,29.83,WSW,248,2.3,2.3,57,0.00,CLR,OVC,0.00,0.0,WeatherDisplay:10.37,2013-04-28 11:01:00,
2013-04-28 04:06:00,57.9,42.8,29.82,SW,225,1.2,1.2,57,0.00,CLR,OVC,0.00,0.0,WeatherDisplay:10.37,2013-04-28 11:06:00,
2013-04-28 04:11:00,57.9,43.2,29.82,SW,225,2.3,2.3,58,0.00,CLR,OVC,0.00,0.0,WeatherDisplay:10.37,2013-04-28 11:11:00,
2013-04-28 04:16:00,57.9,43.2,29.82,South,180,1.4,1.4,58,0.00,CLR,OVC,0.00,0.0,WeatherDisplay:10.37,2013-04-28 11:16:00,
2013-04-28 04:21:00,57.7,43.1,29.82,SSW,202,1.2,1.2,58,0.00,CLR,OVC,0.00,0.0,WeatherDisplay:10.37,2013-04-28 11:21:00,
2013-04-28 04:26:00,57.6,42.9,29.83,ESE,112,1.2,1.2,58,0.00,CLR,OVC,0.00,0.0,WeatherDisplay:10.37,2013-04-28 11:26:00,
2013-04-28 04:31:00,57.4,42.7,29.83,SE,135,1.2,1.2,58,0.00,CLR,OVC,0.00,0.0,WeatherDisplay:10.37,2013-04-28 11:31:00,
2013-04-28 04:36:00,57.4,42.7,29.83,South,180,2.3,2.3,58,0.00,CLR,OVC,0.00,0.0,WeatherDisplay:10.37,2013-04-28 11:36:00,
2013-04-28 04:41:00,57.4,42.7,29.83,SE,135,0.0,0.3,58,0.00,CLR,OVC,0.00,0.0,WeatherDisplay:10.37,2013-04-28 11:41:00,
2013-04-28 04:46:00,57.4,42.7,29.82,NNW,338,0.0,0.2,58,0.00,CLR,OVC,0.00,0.0,WeatherDisplay:10.37,2013-04-28 11:46:00,
2013-04-28 04:51:00,57.2,42.5,29.82,SE,135,0.0,0.2,58,0.00,CLR,OVC,0.00,0.0,WeatherDisplay:10.37,2013-04-28 11:51:00,
2013-04-28 04:56:00,57.0,42.8,29.82,South,180,1.2,1.2,59,0.00,CLR,OVC,0.00,0.0,WeatherDisplay:10.37,2013-04-28 11:56:00,
2013-04-28 05:01:00,57.0,42.8,29.82,SSE,158,1.2,1.2,59,0.00,CLR,OVC,0.00,0.0,WeatherDisplay:10.37,2013-04-28 12:01:00,
2013-04-28 05:06:00,57.0,42.8,29.82,South,180,1.2,1.2,59,0.00,CLR,OVC,0.00,0.0,WeatherDisplay:10.37,2013-04-28 12:06:00,
2013-04-28 05:11:00,56.8,42.7,29.82,SSE,158,2.0,2.0,59,0.00,CLR,OVC,0.00,0.0,WeatherDisplay:10.37,2013-04-28 12:11:00,
2013-04-28 05:16:00,56.8,42.7,29.82,South,180,0.0,0.2,59,0.00,CLR,OVC,0.00,0.0,WeatherDisplay:10.37,2013-04-28 12:16:00,
2013-04-28 05:21:00,56.8,42.7,29.82,South,180,1.2,1.2,59,0.00,CLR,OVC,0.00,0.0,WeatherDisplay:10.37,2013-04-28 12:21:00,
2013-04-28 05:26:00,56.7,42.5,29.82,SSE,158,0.0,0.1,59,0.00,CLR,OVC,0.00,0.0,WeatherDisplay:10.37,2013-04-28 12:26:00,
2013-04-28 05:31:00,56.7,42.5,29.82,East,90,0.0,0.2,59,0.00,CLR,OVC,0.00,0.0,WeatherDisplay:10.37,2013-04-28 12:31:00,
2013-04-28 05:36:00,56.7,42.5,29.82,East,90,0.0,0.2,59,0.00,CLR,OVC,0.00,0.0,WeatherDisplay:10.37,2013-04-28 12:36:00,
2013-04-28 05:41:00,56.5,42.8,29.82,SSE,158,1.8,1.8,60,0.00,CLR,OVC,0.00,0.0,WeatherDisplay:10.37,2013-04-28 12:41:00,
2013-04-28 05:46:00,56.3,42.6,29.82,SW,225,3.5,3.5,60,0.00,CLR,OVC,0.00,0.0,WeatherDisplay:10.37,2013-04-28 12:46:00,
2013-04-28 05:51:00,56.1,42.4,29.82,South,180,3.5,3.5,60,0.00,CLR,OVC,0.00,0.0,WeatherDisplay:10.37,2013-04-28 12:51:00,
2013-04-28 05:56:00,56.1,42.4,29.82,WSW,248,2.3,2.3,60,0.00,CLR,OVC,0.00,0.0,WeatherDisplay:10.37,2013-04-28 12:56:00,
2013-04-28 06:01:00,55.9,42.2,29.82,South,180,2.3,2.3,60,0.00,CLR,OVC,0.00,0.0,WeatherDisplay:10.37,2013-04-28 13:01:00,
2013-04-28 06:06:00,55.9,42.2,29.83,WSW,248,2.3,2.3,60,0.00,CLR,OVC,0.00,0.0,WeatherDisplay:10.37,2013-04-28 13:06:00,
2013-04-28 06:11:00,55.9,42.2,29.83,WSW,248,1.2,1.2,60,0.00,CLR,OVC,0.00,0.0,WeatherDisplay:10.37,2013-04-28 13:11:00,
2013-04-28 06:16:00,56.1,42.4,29.83,SW,225,0.0,0.7,60,0.00,CLR,OVC,0.00,0.0,WeatherDisplay:10.37,2013-04-28 13:16:00,
2013-04-28 06:21:00,56.1,42.4,29.83,South,180,1.2,1.2,60,0.00,CLR,OVC,0.00,0.0,WeatherDisplay:10.37,2013-04-28 13:21:00,
2013-04-28 06:26:00,55.9,42.2,29.83,SSE,158,0.0,0.1,60,0.00,CLR,OVC,0.00,0.0,WeatherDisplay:10.37,2013-04-28 13:26:00,
2013-04-28 06:31:00,55.9,42.2,29.83,South,180,0.0,0.0,60,0.00,CLR,OVC,0.00,0.0,WeatherDisplay:10.37,2013-04-28 13:31:00,
2013-04-28 06:36:00,55.9,42.2,29.83,SW,225,1.3,1.3,60,0.00,CLR,OVC,0.00,0.0,WeatherDisplay:10.37,2013-04-28 13:36:00,
2013-04-28 06:41:00,55.9,42.7,29.83,SSW,202,2.0,2.0,61,0.00,CLR,OVC,0.00,0.0,WeatherDisplay:10.37,2013-04-28 13:41:00,
2013-04-28 06:46:00,55.9,42.7,29.83,SW,225,2.3,2.3,61,0.00,CLR,OVC,0.00,0.0,WeatherDisplay:10.37,2013-04-28 13:46:00,
2013-04-28 06:51:00,55.9,42.7,29.83,WSW,248,2.3,2.3,61,0.00,CLR,OVC,0.00,0.0,WeatherDisplay:10.37,2013-04-28 13:51:00,
2013-04-28 06:56:00,55.9,42.7,29.83,SW,225,1.2,1.2,61,0.00,CLR,OVC,0.00,0.0,WeatherDisplay:10.37,2013-04-28 13:56:00,
2013-04-28 07:01:00,55.9,43.1,29.83,WSW,248,2.3,2.3,62,0.00,CLR,OVC,0.00,0.0,WeatherDisplay:10.37,2013-04-28 14:01:00,
2013-04-28 07:06:00,55.9,43.1,29.84,South,180,1.2,1.2,62,0.00,CLR,OVC,0.00,0.0,WeatherDisplay:10.37,2013-04-28 14:06:00,
2013-04-28 07:11:00,55.9,43.1,29.84,South,180,2.3,2.3,62,0.00,CLR,OVC,0.00,0.0,WeatherDisplay:10.37,2013-04-28 14:11:00,
2013-04-28 07:16:00,56.1,43.7,29.84,West,270,2.3,2.3,63,0.00,CLR,OVC,0.00,0.0,WeatherDisplay:10.37,2013-04-28 14:16:00,
2013-04-28 07:21:00,56.3,43.9,29.84,ENE,68,2.3,2.3,63,0.00,CLR,OVC,0.00,0.0,WeatherDisplay:10.37,2013-04-28 14:21:00,
2013-04-28 07:26:00,56.3,43.9,29.84,SW,225,1.2,1.2,63,0.00,CLR,OVC,0.00,0.0,WeatherDisplay:10.37,2013-04-28 14:26:00,
2013-04-28 07:31:00,56.7,44.2,29.84,WSW,248,2.3,2.3,63,0.00,CLR,OVC,0.00,0.0,WeatherDisplay:10.37,2013-04-28 14:31:00,
2013-04-28 07:36:00,56.7,44.2,29.84,South,180,2.3,2.3,63,0.00,CLR,OVC,0.00,0.0,WeatherDisplay:10.37,2013-04-28 14:36:00,
2013-04-28 07:41:00,57.2,44.7,29.84,ESE,112,1.2,1.2,63,0.00,CLR,OVC,0.00,0.0,WeatherDisplay:10.37,2013-04-28 14:41:00,
2013-04-28 07:46:00,57.6,45.1,29.84,ESE,112,0.0,0.7,63,0.00,CLR,OVC,0.00,0.0,WeatherDisplay:10.37,2013-04-28 14:46:00,
2013-04-28 07:51:00,58.3,45.7,29.84,ENE,68,0.0,0.1,63,0.00,CLR,OVC,0.00,0.0,WeatherDisplay:10.37,2013-04-28 14:51:00,
2013-04-28 07:56:00,58.8,45.8,29.84,East,90,0.0,0.0,62,0.00,CLR,OVC,0.00,0.0,WeatherDisplay:10.37,2013-04-28 14:56:00,
2013-04-28 08:01:00,59.4,45.9,29.84,NNW,338,2.0,2.0,61,0.00,CLR,OVC,0.00,0.0,WeatherDisplay:10.37,2013-04-28 15:01:00,
2013-04-28 08:06:00,59.7,46.2,29.86,NW,315,2.3,2.3,61,0.00,CLR,OVC,0.00,0.0,WeatherDisplay:10.37,2013-04-28 15:06:00,
2013-04-28 08:11:00,60.4,46.5,29.86,NNW,338,1.7,1.7,60,0.00,CLR,OVC,0.00,0.0,WeatherDisplay:10.37,2013-04-28 15:11:00,
2013-04-28 08:16:00,60.4,46.5,29.86,NNW,338,2.3,2.3,60,0.00,CLR,OVC,0.00,0.0,WeatherDisplay:10.37,2013-04-28 15:16:00,
2013-04-28 08:21:00,61.9,47.4,29.86,NNW,338,1.2,1.2,59,0.00,CLR,OVC,0.00,0.0,WeatherDisplay:10.37,2013-04-28 15:21:00,
2013-04-28 08:26:00,62.6,47.6,29.86,SW,225,1.2,1.2,58,0.00,CLR,OVC,0.00,0.0,WeatherDisplay:10.37,2013-04-28 15:26:00,
2013-04-28 08:31:00,63.1,47.2,29.86,SSW,202,1.2,1.2,56,0.00,CLR,OVC,0.00,0.0,WeatherDisplay:10.37,2013-04-28 15:31:00,
2013-04-28 08:36:00,63.9,47.9,29.86,NNW,338,1.5,1.5,56,0.00,CLR,OVC,0.00,0.0,WeatherDisplay:10.37,2013-04-28 15:36:00,
2013-04-28 08:41:00,64.8,48.2,29.86,NW,315,0.0,0.3,55,0.00,CLR,OVC,0.00,0.0,WeatherDisplay:10.37,2013-04-28 15:41:00,
2013-04-28 08:46:00,65.7,48.6,29.86,NNE,22,1.3,1.3,54,0.00,CLR,OVC,0.00,0.0,WeatherDisplay:10.37,2013-04-28 15:46:00,
2013-04-28 08:51:00,66.6,48.4,29.86,West,270,2.3,2.3,52,0.00,CLR,OVC,0.00,0.0,WeatherDisplay:10.37,2013-04-28 15:51:00,
2013-04-28 08:56:00,67.1,47.8,29.86,NNE,22,2.3,2.3,50,0.00,CLR,OVC,0.00,0.0,WeatherDisplay:10.37,2013-04-28 15:56:00,
2013-04-28 09:01:00,68.4,48.5,29.86,NNE,22,2.3,2.3,49,0.00,CLR,OVC,0.00,0.0,WeatherDisplay:10.37,2013-04-28 16:01:00,
2013-04-28 09:06:00,68.9,48.4,29.86,ENE,68,1.6,1.6,48,0.00,CLR,OVC,0.00,0.0,WeatherDisplay:10.37,2013-04-28 16:06:00,
2013-04-28 09:11:00,70.2,49.0,29.86,East,90,1.6,1.6,47,0.00,CLR,OVC,0.00,0.0,WeatherDisplay:10.37,2013-04-28 16:11:00,
2013-04-28 09:16:00,70.9,48.5,29.86,ENE,68,2.3,2.3,45,0.00,CLR,OVC,0.00,0.0,WeatherDisplay:10.37,2013-04-28 16:16:00,
2013-04-28 09:21:00,71.8,48.1,29.86,ESE,112,2.3,2.3,43,0.00,CLR,OVC,0.00,0.0,WeatherDisplay:10.37,2013-04-28 16:21:00,
2013-04-28 09:26:00,72.7,48.3,29.85,ESE,112,2.3,2.3,42,0.00,CLR,OVC,0.00,0.0,WeatherDisplay:10.37,2013-04-28 16:26:00,
2013-04-28 09:31:00,73.8,47.9,29.85,SSE,158,1.7,1.7,40,0.00,CLR,OVC,0.00,0.0,WeatherDisplay:10.37,2013-04-28 16:31:00,
2013-04-28 09:36:00,74.7,48.1,29.85,East,90,1.2,1.2,39,0.00,CLR,OVC,0.00,0.0,WeatherDisplay:10.37,2013-04-28 16:36:00,
2013-04-28 09:41:00,75.4,47.3,29.85,SE,135,2.3,2.3,37,0.00,CLR,OVC,0.00,0.0,WeatherDisplay:10.37,2013-04-28 16:41:00,
2013-04-28 09:46:00,75.9,47.0,29.85,NNE,22,2.3,2.3,36,0.00,CLR,OVC,0.00,0.0,WeatherDisplay:10.37,2013-04-28 16:46:00,
2013-04-28 09:51:00,77.0,46.5,29.85,ENE,68,2.8,2.8,34,0.00,CLR,OVC,0.00,0.0,WeatherDisplay:10.37,2013-04-28 16:51:00,
2013-04-28 09:56:00,77.2,45.8,29.85,SE,135,1.2,1.2,33,0.00,CLR,OVC,0.00,0.0,WeatherDisplay:10.37,2013-04-28 16:56:00,
2013-04-28 10:01:00,78.3,46.8,29.85,ENE,68,1.2,1.2,33,0.00,CLR,OVC,0.00,0.0,WeatherDisplay:10.37,2013-04-28 17:01:00,
2013-04-28 10:06:00,79.2,45.9,29.85,ESE,112,2.3,2.3,31,0.00,CLR,OVC,0.00,0.0,WeatherDisplay:10.37,2013-04-28 17:06:00,
2013-04-28 10:11:00,79.9,45.7,29.85,NNE,22,2.3,2.3,30,0.00,CLR,OVC,0.00,0.0,WeatherDisplay:10.37,2013-04-28 17:11:00,
2013-04-28 10:16:00,80.2,46.0,29.85,NW,315,1.2,1.2,30,0.00,CLR,OVC,0.00,0.0,WeatherDisplay:10.37,2013-04-28 17:16:00,
2013-04-28 10:21:00,81.1,44.9,29.85,SSE,158,1.2,1.2,28,0.00,CLR,OVC,0.00,0.0,WeatherDisplay:10.37,2013-04-28 17:21:00,
2013-04-28 10:26:00,81.5,44.3,29.84,SSW,202,2.3,2.3,27,0.00,CLR,OVC,0.00,0.0,WeatherDisplay:10.37,2013-04-28 17:26:00,
2013-04-28 10:31:00,82.4,44.1,29.84,WSW,248,2.3,2.3,26,0.00,CLR,OVC,0.00,0.0,WeatherDisplay:10.37,2013-04-28 17:31:00,
2013-04-28 10:36:00,82.0,43.8,29.84,NE,45,2.3,2.3,26,0.00,CLR,OVC,0.00,0.0,WeatherDisplay:10.37,2013-04-28 17:36:00,
2013-04-28 10:41:00,83.3,44.8,29.84,NNE,22,2.3,2.3,26,0.00,CLR,OVC,0.00,0.0,WeatherDisplay:10.37,2013-04-28 17:41:00,
2013-04-28 10:46:00,83.7,43.0,29.85,WSW,248,2.5,2.5,24,0.00,CLR,OVC,0.00,0.0,WeatherDisplay:10.37,2013-04-28 17:46:00,
2013-04-28 10:51:00,83.8,42.1,29.85,SE,135,1.4,1.4,23,0.00,CLR,OVC,0.00,0.0,WeatherDisplay:10.37,2013-04-28 17:51:00,
2013-04-28 10:56:00,84.2,41.2,29.85,NNE,22,2.8,2.8,22,0.00,CLR,OVC,0.00,0.0,WeatherDisplay:10.37,2013-04-28 17:56:00,
2013-04-28 11:01:00,84.0,39.9,29.85,ESE,112,3.5,3.5,21,0.00,CLR,OVC,0.00,0.0,WeatherDisplay:10.37,2013-04-28 18:01:00,
2013-04-28 11:06:00,85.3,40.9,29.83,SE,135,0.0,1.4,21,0.00,CLR,OVC,0.00,0.0,WeatherDisplay:10.37,2013-04-28 18:06:00,
2013-04-28 11:11:00,86.4,41.8,29.83,WNW,292,1.2,1.2,21,0.00,CLR,OVC,0.00,0.0,WeatherDisplay:10.37,2013-04-28 18:11:00,
2013-04-28 11:16:00,86.5,42.0,29.83,East,90,2.3,2.3,21,0.00,CLR,OVC,0.00,0.0,WeatherDisplay:10.37,2013-04-28 18:16:00,
2013-04-28 11:21:00,86.0,38.9,29.83,NNE,22,3.5,3.5,19,0.00,CLR,OVC,0.00,0.0,WeatherDisplay:10.37,2013-04-28 18:21:00,
2013-04-28 11:26:00,86.7,40.8,29.84,SE,135,2.6,2.6,20,0.00,CLR,OVC,0.00,0.0,WeatherDisplay:10.37,2013-04-28 18:26:00,
2013-04-28 11:32:00,86.2,36.2,29.84,NNE,22,4.6,4.6,17,0.00,CLR,OVC,0.00,0.0,WeatherDisplay:10.37,2013-04-28 18:32:00,
2013-04-28 11:37:00,86.5,38.0,29.84,West,270,4.6,4.6,18,0.00,CLR,OVC,0.00,0.0,WeatherDisplay:10.37,2013-04-28 18:37:00,
2013-04-28 11:42:00,86.5,33.4,29.84,North,0,4.6,4.6,15,0.00,CLR,OVC,0.00,0.0,WeatherDisplay:10.37,2013-04-28 18:42:00,
2013-04-28 11:47:00,86.2,33.1,29.83,NNW,338,4.6,4.6,15,0.00,CLR,OVC,0.00,0.0,WeatherDisplay:10.37,2013-04-28 18:47:00,
2013-04-28 11:52:00,87.1,33.8,29.83,NNW,338,3.5,3.5,15,0.00,CLR,OVC,0.00,0.0,WeatherDisplay:10.37,2013-04-28 18:52:00,
2013-04-28 11:57:00,86.9,32.0,29.83,North,0,4.6,4.6,14,0.00,CLR,OVC,0.00,0.0,WeatherDisplay:10.37,2013-04-28 18:57:00,
2013-04-28 12:02:00,86.5,29.8,29.83,NW,315,4.6,4.6,13,0.00,CLR,OVC,0.00,0.0,WeatherDisplay:10.37,2013-04-28 19:02:00,
2013-04-28 12:07:00,87.4,30.5,29.83,ESE,112,7.5,7.5,13,0.00,CLR,OVC,0.00,0.0,WeatherDisplay:10.37,2013-04-28 19:07:00,
2013-04-28 12:12:00,87.3,30.4,29.83,NW,315,6.9,6.9,13,0.00,CLR,OVC,0.00,0.0,WeatherDisplay:10.37,2013-04-28 19:12:00,
2013-04-28 12:17:00,88.3,29.3,29.83,NNE,22,3.5,3.5,12,0.00,CLR,OVC,0.00,0.0,WeatherDisplay:10.37,2013-04-28 19:17:00,
2013-04-28 12:22:00,88.9,29.7,29.83,SW,225,3.5,3.5,12,0.00,CLR,OVC,0.00,0.0,WeatherDisplay:10.37,2013-04-28 19:22:00,
2013-04-28 12:27:00,88.7,27.4,29.82,NW,315,3.5,3.5,11,0.00,CLR,OVC,0.00,0.0,WeatherDisplay:10.37,2013-04-28 19:27:00,
2013-04-28 12:32:00,88.3,24.8,29.82,WSW,248,4.6,4.6,10,0.00,CLR,OVC,0.00,0.0,WeatherDisplay:10.37,2013-04-28 19:32:00,
2013-04-28 12:37:00,88.3,24.8,29.82,NW,315,6.9,6.9,10,0.00,CLR,OVC,0.00,0.0,WeatherDisplay:10.37,2013-04-28 19:37:00,
2013-04-28 12:42:00,88.7,25.1,29.82,NNW,338,5.8,5.8,10,0.00,CLR,OVC,0.00,0.0,WeatherDisplay:10.37,2013-04-28 19:42:00,
2013-04-28 12:47:00,89.1,25.4,29.81,NNW,338,4.6,4.6,10,0.00,CLR,OVC,0.00,0.0,WeatherDisplay:10.37,2013-04-28 19:47:00,
2013-04-28 12:52:00,89.2,25.5,29.81,NNE,22,3.8,3.8,10,0.00,CLR,OVC,0.00,0.0,WeatherDisplay:10.37,2013-04-28 19:52:00,
2013-04-28 12:57:00,89.2,25.5,29.81,West,270,6.9,6.9,10,0.00,CLR,OVC,0.00,0.0,WeatherDisplay:10.37,2013-04-28 19:57:00,
2013-04-28 13:02:00,89.2,20.2,29.81,NE,45,6.9,6.9,8,0.00,CLR,OVC,0.00,0.0,WeatherDisplay:10.37,2013-04-28 20:02:00,
2013-04-28 13:07:00,89.6,23.3,29.80,West,270,5.8,5.8,9,0.00,CLR,OVC,0.00,0.0,WeatherDisplay:10.37,2013-04-28 20:07:00,
2013-04-28 13:12:00,89.8,23.4,29.80,SE,135,4.6,4.6,9,0.00,CLR,OVC,0.00,0.0,WeatherDisplay:10.37,2013-04-28 20:12:00,
2013-04-28 13:17:00,89.4,20.3,29.80,North,0,5.8,5.8,8,0.00,CLR,OVC,0.00,0.0,WeatherDisplay:10.37,2013-04-28 20:17:00,
2013-04-28 13:22:00,90.1,23.7,29.80,NW,315,2.3,3.5,9,0.00,CLR,OVC,0.00,0.0,WeatherDisplay:10.37,2013-04-28 20:22:00,
2013-04-28 13:27:00,90.5,14.5,29.78,NE,45,2.3,3.0,6,0.00,CLR,OVC,0.00,0.0,WeatherDisplay:10.37,2013-04-28 20:27:00,
2013-04-28 13:32:00,90.5,10.3,29.78,NNW,338,8.1,8.1,5,0.00,CLR,OVC,0.00,0.0,WeatherDisplay:10.37,2013-04-28 20:32:00,
2013-04-28 13:37:00,90.3,10.2,29.78,NW,315,8.1,8.1,5,0.00,CLR,OVC,0.00,0.0,WeatherDisplay:10.37,2013-04-28 20:37:00,
2013-04-28 13:42:00,90.1,10.1,29.78,NNW,338,10.4,10.4,5,0.00,CLR,OVC,0.00,0.0,WeatherDisplay:10.37,2013-04-28 20:42:00,
2013-04-28 13:47:00,90.7,10.5,29.77,NNE,22,4.6,4.6,5,0.00,CLR,OVC,0.00,0.0,WeatherDisplay:10.37,2013-04-28 20:47:00,
2013-04-28 13:52:00,90.9,10.6,29.77,West,270,3.9,3.9,5,0.00,CLR,OVC,0.00,0.0,WeatherDisplay:10.37,2013-04-28 20:52:00,
2013-04-28 13:57:00,90.9,10.6,29.77,NW,315,5.5,5.5,5,0.00,CLR,OVC,0.00,0.0,WeatherDisplay:10.37,2013-04-28 20:57:00,
2013-04-28 14:02:00,91.0,10.7,29.77,NNW,338,6.2,6.2,5,0.00,CLR,OVC,0.00,0.0,WeatherDisplay:10.37,2013-04-28 21:02:00,
2013-04-28 14:07:00,92.1,11.5,29.76,NNE,22,4.3,4.3,5,0.00,CLR,OVC,0.00,0.0,WeatherDisplay:10.37,2013-04-28 21:07:00,
2013-04-28 14:12:00,91.4,11.0,29.76,NNW,338,6.9,6.9,5,0.00,CLR,OVC,0.00,0.0,WeatherDisplay:10.37,2013-04-28 21:12:00,
2013-04-28 14:17:00,91.0,10.7,29.76,NW,315,6.9,6.9,5,0.00,CLR,OVC,0.00,0.0,WeatherDisplay:10.37,2013-04-28 21:17:00,
2013-04-28 14:22:00,91.2,10.8,29.76,NW,315,9.2,9.2,5,0.00,CLR,OVC,0.00,0.0,WeatherDisplay:10.37,2013-04-28 21:22:00,
2013-04-28 14:27:00,91.9,11.3,29.75,NNW,338,9.2,9.2,5,0.00,CLR,OVC,0.00,0.0,WeatherDisplay:10.37,2013-04-28 21:27:00,
2013-04-28 14:32:00,92.7,11.8,29.75,WSW,248,2.3,3.1,5,0.00,CLR,OVC,0.00,0.0,WeatherDisplay:10.37,2013-04-28 21:32:00,
2013-04-28 14:37:00,93.6,12.5,29.75,NNE,22,4.0,4.0,5,0.00,CLR,OVC,0.00,0.0,WeatherDisplay:10.37,2013-04-28 21:37:00,
2013-04-28 14:42:00,93.2,12.2,29.75,NNE,22,4.6,4.6,5,0.00,CLR,OVC,0.00,0.0,WeatherDisplay:10.37,2013-04-28 21:42:00,
2013-04-28 14:47:00,93.4,12.4,29.74,NNE,22,3.5,3.5,5,0.00,CLR,OVC,0.00,0.0,WeatherDisplay:10.37,2013-04-28 21:47:00,
2013-04-28 14:52:00,92.8,12.0,29.74,NW,315,6.9,6.9,5,0.00,CLR,OVC,0.00,0.0,WeatherDisplay:10.37,2013-04-28 21:52:00,
2013-04-28 14:57:00,93.4,12.4,29.74,West,270,5.8,5.8,5,0.00,CLR,OVC,0.00,0.0,WeatherDisplay:10.37,2013-04-28 21:57:00,
2013-04-28 15:02:00,93.7,12.6,29.74,SE,135,3.5,3.5,5,0.00,CLR,OVC,0.00,0.0,WeatherDisplay:10.37,2013-04-28 22:02:00,
2013-04-28 15:07:00,94.8,13.4,29.73,NW,315,5.1,5.1,5,0.00,CLR,OVC,0.00,0.0,WeatherDisplay:10.37,2013-04-28 22:07:00,
2013-04-28 15:12:00,93.7,12.6,29.73,NNE,22,3.5,3.5,5,0.00,CLR,OVC,0.00,0.0,WeatherDisplay:10.37,2013-04-28 22:12:00,
2013-04-28 15:17:00,93.7,12.6,29.73,West,270,5.8,5.8,5,0.00,CLR,OVC,0.00,0.0,WeatherDisplay:10.37,2013-04-28 22:17:00,
2013-04-28 15:22:00,94.1,12.9,29.73,SE,135,4.6,4.6,5,0.00,CLR,OVC,0.00,0.0,WeatherDisplay:10.37,2013-04-28 22:22:00,
2013-04-28 15:27:00,93.9,12.7,29.71,NNW,338,5.8,5.8,5,0.00,CLR,OVC,0.00,0.0,WeatherDisplay:10.37,2013-04-28 22:27:00,
2013-04-28 15:32:00,93.9,12.7,29.71,NNE,22,5.8,5.8,5,0.00,CLR,OVC,0.00,0.0,WeatherDisplay:10.37,2013-04-28 22:32:00,
2013-04-28 15:37:00,93.9,12.7,29.71,NNW,338,1.2,3.0,5,0.00,CLR,OVC,0.00,0.0,WeatherDisplay:10.37,2013-04-28 22:37:00,
2013-04-28 15:42:00,93.7,12.6,29.71,NW,315,9.2,9.2,5,0.00,CLR,OVC,0.00,0.0,WeatherDisplay:10.37,2013-04-28 22:42:00,
2013-04-28 15:47:00,93.7,12.6,29.70,NW,315,4.6,4.6,5,0.00,CLR,OVC,0.00,0.0,WeatherDisplay:10.37,2013-04-28 22:47:00,
2013-04-28 15:52:00,93.7,12.6,29.70,NNW,338,5.8,5.8,5,0.00,CLR,OVC,0.00,0.0,WeatherDisplay:10.37,2013-04-28 22:52:00,
2013-04-28 15:57:00,93.9,12.7,29.70,NNE,22,4.9,4.9,5,0.00,CLR,OVC,0.00,0.0,WeatherDisplay:10.37,2013-04-28 22:57:00,
2013-04-28 16:02:00,93.6,12.5,29.70,NW,315,9.2,9.2,5,0.00,CLR,OVC,0.00,0.0,WeatherDisplay:10.37,2013-04-28 23:02:00,
2013-04-28 16:07:00,93.7,12.6,29.69,WSW,248,2.3,3.5,5,0.00,CLR,OVC,0.00,0.0,WeatherDisplay:10.37,2013-04-28 23:07:00,
2013-04-28 16:12:00,94.1,12.9,29.69,East,90,2.3,2.8,5,0.00,CLR,OVC,0.00,0.0,WeatherDisplay:10.37,2013-04-28 23:12:00,
2013-04-28 16:17:00,93.7,12.6,29.69,NNW,338,6.9,6.9,5,0.00,CLR,OVC,0.00,0.0,WeatherDisplay:10.37,2013-04-28 23:17:00,
2013-04-28 16:22:00,93.6,12.5,29.69,ENE,68,4.6,4.6,5,0.00,CLR,OVC,0.00,0.0,WeatherDisplay:10.37,2013-04-28 23:22:00,
2013-04-28 16:27:00,93.4,12.4,29.68,NNE,22,6.2,6.2,5,0.00,CLR,OVC,0.00,0.0,WeatherDisplay:10.37,2013-04-28 23:27:00,
2013-04-28 16:32:00,92.5,11.7,29.68,North,0,2.3,3.3,5,0.00,CLR,OVC,0.00,0.0,WeatherDisplay:10.37,2013-04-28 23:32:00,
2013-04-28 16:37:00,91.6,11.1,29.68,North,0,3.5,3.5,5,0.00,CLR,OVC,0.00,0.0,WeatherDisplay:10.37,2013-04-28 23:37:00,
2013-04-28 16:42:00,91.2,10.8,29.68,NW,315,5.8,5.8,5,0.00,CLR,OVC,0.00,0.0,WeatherDisplay:10.37,2013-04-28 23:42:00,
2013-04-28 16:47:00,91.8,11.2,29.68,NW,315,4.6,4.6,5,0.00,CLR,OVC,0.00,0.0,WeatherDisplay:10.37,2013-04-28 23:47:00,
2013-04-28 16:52:00,91.8,11.2,29.68,NNW,338,5.8,5.8,5,0.00,CLR,OVC,0.00,0.0,WeatherDisplay:10.37,2013-04-28 23:52:00,
2013-04-28 16:57:00,91.8,11.2,29.68,NNW,338,6.9,6.9,5,0.00,CLR,OVC,0.00,0.0,WeatherDisplay:10.37,2013-04-28 23:57:00,
2013-04-28 17:02:00,91.6,11.1,29.68,NNE,22,4.6,4.6,5,0.00,CLR,OVC,0.00,0.0,WeatherDisplay:10.37,2013-04-29 00:02:00,
2013-04-28 17:07:00,91.9,11.3,29.68,North,0,3.5,3.5,5,0.00,CLR,OVC,0.00,0.0,WeatherDisplay:10.37,2013-04-29 00:07:00,
2013-04-28 17:12:00,91.9,11.3,29.68,NW,315,2.3,2.6,5,0.00,CLR,OVC,0.00,0.0,WeatherDisplay:10.37,2013-04-29 00:12:00,
2013-04-28 17:17:00,91.4,11.0,29.68,West,270,3.5,3.5,5,0.00,CLR,OVC,0.00,0.0,WeatherDisplay:10.37,2013-04-29 00:17:00,
2013-04-28 17:22:00,91.6,11.1,29.68,NW,315,4.6,4.6,5,0.00,CLR,OVC,0.00,0.0,WeatherDisplay:10.37,2013-04-29 00:22:00,
2013-04-28 17:27:00,91.2,10.8,29.67,NW,315,3.5,3.5,5,0.00,CLR,OVC,0.00,0.0,WeatherDisplay:10.37,2013-04-29 00:27:00,
2013-04-28 17:32:00,91.0,10.7,29.67,NE,45,7.5,7.5,5,0.00,CLR,OVC,0.00,0.0,WeatherDisplay:10.37,2013-04-29 00:32:00,
2013-04-28 17:37:00,91.0,10.7,29.67,WSW,248,3.5,3.5,5,0.00,CLR,OVC,0.00,0.0,WeatherDisplay:10.37,2013-04-29 00:37:00,
2013-04-28 17:42:00,90.9,10.6,29.67,NW,315,6.9,6.9,5,0.00,CLR,OVC,0.00,0.0,WeatherDisplay:10.37,2013-04-29 00:42:00,
2013-04-28 17:47:00,90.5,10.3,29.67,North,0,3.5,3.5,5,0.00,CLR,OVC,0.00,0.0,WeatherDisplay:10.37,2013-04-29 00:47:00,
2013-04-28 17:52:00,90.5,10.3,29.67,NW,315,4.6,4.6,5,0.00,CLR,OVC,0.00,0.0,WeatherDisplay:10.37,2013-04-29 00:52:00,
2013-04-28 17:57:00,90.1,10.1,29.67,NE,45,4.6,4.6,5,0.00,CLR,OVC,0.00,0.0,WeatherDisplay:10.37,2013-04-29 00:57:00,
2013-04-28 18:02:00,90.3,10.2,29.67,NNE,22,2.3,2.3,5,0.00,CLR,OVC,0.00,0.0,WeatherDisplay:10.37,2013-04-29 01:02:00,
2013-04-28 18:07:00,90.0,9.9,29.66,NNE,22,3.5,3.5,5,0.00,CLR,OVC,0.00,0.0,WeatherDisplay:10.37,2013-04-29 01:07:00,
2013-04-28 18:12:00,89.8,9.8,29.66,NW,315,3.5,3.5,5,0.00,CLR,OVC,0.00,0.0,WeatherDisplay:10.37,2013-04-29 01:12:00,
2013-04-28 18:17:00,89.6,9.7,29.66,NW,315,3.5,3.5,5,0.00,CLR,OVC,0.00,0.0,WeatherDisplay:10.37,2013-04-29 01:17:00,
2013-04-28 18:22:00,89.4,9.6,29.66,NW,315,2.3,2.3,5,0.00,CLR,OVC,0.00,0.0,WeatherDisplay:10.37,2013-04-29 01:22:00,
2013-04-28 18:27:00,89.2,9.4,29.65,North,0,1.2,1.4,5,0.00,CLR,OVC,0.00,0.0,WeatherDisplay:10.37,2013-04-29 01:27:00,
2013-04-28 18:32:00,89.1,9.3,29.65,NNE,22,1.2,1.2,5,0.00,CLR,OVC,0.00,0.0,WeatherDisplay:10.37,2013-04-29 01:32:00,
2013-04-28 18:37:00,88.9,9.2,29.65,NNE,22,1.2,1.2,5,0.00,CLR,OVC,0.00,0.0,WeatherDisplay:10.37,2013-04-29 01:37:00,
2013-04-28 18:42:00,88.5,8.9,29.65,NW,315,2.3,2.3,5,0.00,CLR,OVC,0.00,0.0,WeatherDisplay:10.37,2013-04-29 01:42:00,
2013-04-28 18:47:00,88.3,8.8,29.65,NNW,338,2.3,2.3,5,0.00,CLR,OVC,0.00,0.0,WeatherDisplay:10.37,2013-04-29 01:47:00,
2013-04-28 18:52:00,88.0,8.6,29.65,NNW,338,1.2,1.3,5,0.00,CLR,OVC,0.00,0.0,WeatherDisplay:10.37,2013-04-29 01:52:00,
2013-04-28 18:57:00,87.8,8.4,29.65,WNW,292,2.3,2.3,5,0.00,CLR,OVC,0.00,0.0,WeatherDisplay:10.37,2013-04-29 01:57:00,
2013-04-28 19:02:00,87.6,8.3,29.65,NNW,338,2.3,2.3,5,0.00,CLR,OVC,0.00,0.0,WeatherDisplay:10.37,2013-04-29 02:02:00,
2013-04-28 19:07:00,87.3,8.0,29.64,NNW,338,3.2,3.2,5,0.00,CLR,OVC,0.00,0.0,WeatherDisplay:10.37,2013-04-29 02:07:00,
2013-04-28 19:12:00,87.3,8.0,29.64,NNW,338,0.0,1.0,5,0.00,CLR,OVC,0.00,0.0,WeatherDisplay:10.37,2013-04-29 02:12:00,
2013-04-28 19:17:00,86.7,7.7,29.64,NW,315,1.2,1.2,5,0.00,CLR,OVC,0.00,0.0,WeatherDisplay:10.37,2013-04-29 02:17:00,
2013-04-28 19:22:00,86.7,7.7,29.64,NW,315,0.0,0.3,5,0.00,CLR,OVC,0.00,0.0,WeatherDisplay:10.37,2013-04-29 02:22:00,
2013-04-28 19:27:00,86.4,7.4,29.65,NW,315,0.0,0.0,5,0.00,CLR,OVC,0.00,0.0,WeatherDisplay:10.37,2013-04-29 02:27:00,
2013-04-28 19:32:00,86.2,7.3,29.65,NNW,338,0.0,0.0,5,0.00,CLR,OVC,0.00,0.0,WeatherDisplay:10.37,2013-04-29 02:32:00,
2013-04-28 19:37:00,85.6,6.9,29.65,WSW,248,0.0,0.0,5,0.00,CLR,OVC,0.00,0.0,WeatherDisplay:10.37,2013-04-29 02:37:00,
2013-04-28 19:42:00,85.3,6.7,29.65,ENE,68,0.0,0.0,5,0.00,CLR,OVC,0.00,0.0,WeatherDisplay:10.37,2013-04-29 02:42:00,
2013-04-28 19:47:00,84.7,6.3,29.64,NNW,338,0.0,0.0,5,0.00,CLR,OVC,0.00,0.0,WeatherDisplay:10.37,2013-04-29 02:47:00,
2013-04-28 19:52:00,84.6,6.1,29.64,East,90,0.0,0.0,5,0.00,CLR,OVC,0.00,0.0,WeatherDisplay:10.37,2013-04-29 02:52:00,
2013-04-28 19:57:00,84.0,9.8,29.64,NE,45,0.0,0.0,6,0.00,CLR,OVC,0.00,0.0,WeatherDisplay:10.37,2013-04-29 02:57:00,
2013-04-28 20:02:00,83.7,9.5,29.64,NE,45,0.0,0.0,6,0.00,CLR,OVC,0.00,0.0,WeatherDisplay:10.37,2013-04-29 03:02:00,
2013-04-28 20:07:00,82.9,9.0,29.65,SE,135,0.0,0.0,6,0.00,CLR,OVC,0.00,0.0,WeatherDisplay:10.37,2013-04-29 03:07:00,
2013-04-28 20:12:00,82.8,8.9,29.65,ENE,68,0.0,0.0,6,0.00,CLR,OVC,0.00,0.0,WeatherDisplay:10.37,2013-04-29 03:12:00,
2013-04-28 20:17:00,81.9,19.9,29.65,SW,225,0.0,0.1,10,0.00,CLR,OVC,0.00,0.0,WeatherDisplay:10.37,2013-04-29 03:17:00,
2013-04-28 20:22:00,81.7,22.0,29.65,WSW,248,2.3,2.3,11,0.00,CLR,OVC,0.00,0.0,WeatherDisplay:10.37,2013-04-29 03:22:00,
2013-04-28 20:27:00,81.1,21.6,29.65,SW,225,2.3,2.3,11,0.00,CLR,OVC,0.00,0.0,WeatherDisplay:10.37,2013-04-29 03:27:00,
2013-04-28 20:32:00,81.0,23.5,29.65,SSW,202,2.3,2.3,12,0.00,CLR,OVC,0.00,0.0,WeatherDisplay:10.37,2013-04-29 03:32:00,
2013-04-28 20:37:00,80.8,25.3,29.65,SSE,158,3.5,3.5,13,0.00,CLR,OVC,0.00,0.0,WeatherDisplay:10.37,2013-04-29 03:37:00,
2013-04-28 20:42:00,80.6,30.2,29.65,SW,225,2.3,2.3,16,0.00,CLR,OVC,0.00,0.0,WeatherDisplay:10.37,2013-04-29 03:42:00,
2013-04-28 20:47:00,80.2,36.7,29.65,SW,225,2.3,2.3,21,0.00,CLR,OVC,0.00,0.0,WeatherDisplay:10.37,2013-04-29 03:47:00,
2013-04-28 20:52:00,80.1,37.8,29.65,SW,225,2.3,2.3,22,0.00,CLR,OVC,0.00,0.0,WeatherDisplay:10.37,2013-04-29 03:52:00,
2013-04-28 20:57:00,79.7,38.6,29.65,WSW,248,2.3,2.3,23,0.00,CLR,OVC,0.00,0.0,WeatherDisplay:10.37,2013-04-29 03:57:00,
2013-04-28 21:01:00,79.7,38.6,29.65,SSW,202,2.3,2.3,23,0.00,CLR,OVC,0.00,0.0,WeatherDisplay:10.37,2013-04-29 04:01:00,
2013-04-28 21:06:00,79.3,40.4,29.66,WSW,248,2.3,2.3,25,0.00,CLR,OVC,0.00,0.0,WeatherDisplay:10.37,2013-04-29 04:06:00,
2013-04-28 21:11:00,79.2,40.3,29.66,WSW,248,2.3,2.3,25,0.00,CLR,OVC,0.00,0.0,WeatherDisplay:10.37,2013-04-29 04:11:00,
2013-04-28 21:16:00,78.8,41.0,29.66,SSE,158,3.5,3.5,26,0.00,CLR,OVC,0.00,0.0,WeatherDisplay:10.37,2013-04-29 04:16:00,
2013-04-28 21:21:00,78.6,41.8,29.66,WSW,248,2.3,2.3,27,0.00,CLR,OVC,0.00,0.0,WeatherDisplay:10.37,2013-04-29 04:21:00,
2013-04-28 21:26:00,78.3,42.5,29.66,SW,225,2.3,2.3,28,0.00,CLR,OVC,0.00,0.0,WeatherDisplay:10.37,2013-04-29 04:26:00,
2013-04-28 21:31:00,77.9,43.1,29.66,WSW,248,2.3,2.3,29,0.00,CLR,OVC,0.00,0.0,WeatherDisplay:10.37,2013-04-29 04:31:00,
2013-04-28 21:36:00,77.7,43.8,29.66,SSW,202,0.0,0.8,30,0.00,CLR,OVC,0.00,0.0,WeatherDisplay:10.37,2013-04-29 04:36:00,
2013-04-28 21:41:00,77.5,43.6,29.66,SSW,202,1.2,1.2,30,0.00,CLR,OVC,0.00,0.0,WeatherDisplay:10.37,2013-04-29 04:41:00,
2013-04-28 21:46:00,77.2,43.3,29.66,SW,225,2.3,2.3,30,0.00,CLR,OVC,0.00,0.0,WeatherDisplay:10.37,2013-04-29 04:46:00,
2013-04-28 21:51:00,76.8,43.0,29.66,South,180,1.2,1.2,30,0.00,CLR,OVC,0.00,0.0,WeatherDisplay:10.37,2013-04-29 04:51:00,
2013-04-28 21:56:00,76.5,43.6,29.66,SW,225,2.3,2.3,31,0.00,CLR,OVC,0.00,0.0,WeatherDisplay:10.37,2013-04-29 04:56:00,
2013-04-28 22:01:00,76.3,43.4,29.66,SW,225,1.2,1.2,31,0.00,CLR,OVC,0.00,0.0,WeatherDisplay:10.37,2013-04-29 05:01:00,
2013-04-28 22:06:00,75.9,43.9,29.66,SW,225,1.2,1.2,32,0.00,CLR,OVC,0.00,0.0,WeatherDisplay:10.37,2013-04-29 05:06:00,
2013-04-28 22:11:00,75.7,44.6,29.66,SW,225,1.2,1.2,33,0.00,CLR,OVC,0.00,0.0,WeatherDisplay:10.37,2013-04-29 05:11:00,
2013-04-28 22:16:00,75.4,44.3,29.66,South,180,2.3,2.3,33,0.00,CLR,OVC,0.00,0.0,WeatherDisplay:10.37,2013-04-29 05:16:00,
2013-04-28 22:21:00,75.0,44.7,29.66,SW,225,1.2,1.5,34,0.00,CLR,OVC,0.00,0.0,WeatherDisplay:10.37,2013-04-29 05:21:00,
2013-04-28 22:26:00,74.8,45.3,29.66,SSW,202,2.3,2.3,35,0.00,CLR,OVC,0.00,0.0,WeatherDisplay:10.37,2013-04-29 05:26:00,
2013-04-28 22:31:00,74.7,45.2,29.66,WSW,248,1.2,1.3,35,0.00,CLR,OVC,0.00,0.0,WeatherDisplay:10.37,2013-04-29 05:31:00,
2013-04-28 22:36:00,74.3,44.9,29.66,South,180,1.2,1.2,35,0.00,CLR,OVC,0.00,0.0,WeatherDisplay:10.37,2013-04-29 05:36:00,
2013-04-28 22:41:00,74.1,45.5,29.66,West,270,1.2,1.2,36,0.00,CLR,OVC,0.00,0.0,WeatherDisplay:10.37,2013-04-29 05:41:00,
2013-04-28 22:46:00,73.9,45.3,29.66,SW,225,1.2,1.2,36,0.00,CLR,OVC,0.00,0.0,WeatherDisplay:10.37,2013-04-29 05:46:00,
2013-04-28 22:51:00,73.8,45.1,29.66,SW,225,1.2,1.2,36,0.00,CLR,OVC,0.00,0.0,WeatherDisplay:10.37,2013-04-29 05:51:00,
2013-04-28 22:56:00,73.4,45.5,29.66,SW,225,1.2,1.2,37,0.00,CLR,OVC,0.00,0.0,WeatherDisplay:10.37,2013-04-29 05:56:00,
2013-04-28 23:01:00,73.2,46.1,29.66,South,180,0.0,0.3,38,0.00,CLR,OVC,0.00,0.0,WeatherDisplay:10.37,2013-04-29 06:01:00,
2013-04-28 23:06:00,72.9,45.8,29.65,SSE,158,1.2,1.2,38,0.00,CLR,OVC,0.00,0.0,WeatherDisplay:10.37,2013-04-29 06:06:00,
2013-04-28 23:11:00,72.9,45.8,29.65,SSW,202,0.0,0.1,38,0.00,CLR,OVC,0.00,0.0,WeatherDisplay:10.37,2013-04-29 06:11:00,
2013-04-28 23:16:00,72.5,45.4,29.65,South,180,0.0,0.1,38,0.00,CLR,OVC,0.00,0.0,WeatherDisplay:10.37,2013-04-29 06:16:00,
2013-04-28 23:21:00,72.3,45.3,29.65,SW,225,0.0,0.1,38,0.00,CLR,OVC,0.00,0.0,WeatherDisplay:10.37,2013-04-29 06:21:00,
2013-04-28 23:26:00,72.1,45.1,29.65,WSW,248,0.0,0.1,38,0.00,CLR,OVC,0.00,0.0,WeatherDisplay:10.37,2013-04-29 06:26:00,
2013-04-28 23:31:00,72.0,45.0,29.65,SW,225,0.0,0.1,38,0.00,CLR,OVC,0.00,0.0,WeatherDisplay:10.37,2013-04-29 06:31:00,
2013-04-28 23:36:00,71.6,44.6,29.65,SW,225,1.2,1.2,38,0.00,CLR,OVC,0.00,0.0,WeatherDisplay:10.37,2013-04-29 06:36:00,
2013-04-28 23:41:00,71.4,45.2,29.65,SW,225,0.0,0.3,39,0.00,CLR,OVC,0.00,0.0,WeatherDisplay:10.37,2013-04-29 06:41:00,
2013-04-28 23:46:00,71.1,44.8,29.65,WSW,248,0.0,0.3,39,0.00,CLR,OVC,0.00,0.0,WeatherDisplay:10.37,2013-04-29 06:46:00,
2013-04-28 23:51:00,70.9,44.7,29.65,SW,225,0.0,0.1,39,0.00,CLR,OVC,0.00,0.0,WeatherDisplay:10.37,2013-04-29 06:51:00,
2013-04-28 23:56:00,70.7,44.5,29.65,SW,225,1.2,1.2,39,0.00,CLR,OVC,0.00,0.0,WeatherDisplay:10.37,2013-04-29 06:56:00,